GW6806 Weather Reports


time (UTC)temp
C
wind
direction
speed
KPH
gust
KPH
rain 1hr
cm
rain 24hr
cm
rain mn
cm
humidity
%
barometer
mb
20260504215019 22 113 0.0 8.0 0.00 0.00 0.00 31 1009.5
20260504214546 22 346 3.2 14.5 0.00 0.00 0.00 28 1009.5
20260504214022 22 19 4.8 14.5 0.00 0.00 0.00 30 1009.8
20260504213515 22 26 3.2 11.3 0.00 0.00 0.00 30 1009.7
20260504213049 22 330 1.6 8.0 0.00 0.00 0.00 30 1009.7
20260504212516 21 26 4.8 12.9 0.00 0.00 0.00 30 1009.8
20260504212015 21 13 4.8 14.5 0.00 0.00 0.00 29 1009.8
20260504211633 21 348 4.8 14.5 0.00 0.00 0.00 28 1009.7
20260504211015 21 12 8.0 12.9 0.00 0.00 0.00 31 1009.8
20260504210518 20 15 4.8 8.0 0.00 0.00 0.00 33 1009.8
20260504210058 20 22 4.8 16.1 0.00 0.00 0.00 29 1009.8
20260504205519 21 17 6.4 16.1 0.00 0.00 0.00 29 1009.9
20260504205017 21 30 6.4 12.9 0.00 0.00 0.00 28 1010.0
20260504204550 21 16 4.8 16.1 0.00 0.00 0.00 30 1010.0
20260504204019 21 16 8.0 16.1 0.00 0.00 0.00 29 1010.0
20260504203517 21 5 6.4 12.9 0.00 0.00 0.00 31 1010.0
20260504203052 21 14 6.4 16.1 0.00 0.00 0.00 28 1010.0
20260504202516 20 348 4.8 17.7 0.00 0.00 0.00 27 1010.2
20260504202016 21 9 4.8 14.5 0.00 0.00 0.00 28 1010.2
20260504201953 21 5 6.4 16.1 0.00 0.00 0.00 27 1010.3
20260504201016 21 39 8.0 16.1 0.00 0.00 0.00 28 1010.3
20260504200515 21 32 8.0 16.1 0.00 0.00 0.00 27 1010.3
20260504200053 21 5 6.4 16.1 0.00 0.00 0.00 28 1010.3
20260504195518 21 30 6.4 19.3 0.00 0.00 0.00 29 1010.4
20260504195014 21 37 8.0 19.3 0.00 0.00 0.00 29 1010.4
20260504194551 21 45 6.4 19.3 0.00 0.00 0.00 29 1010.4
20260504194017 21 346 6.4 19.3 0.00 0.00 0.00 30 1010.4
20260504193518 20 19 9.7 17.7 0.00 0.00 0.00 28 1010.3
20260504193044 20 17 9.7 17.7 0.00 0.00 0.00 28 1010.4
20260504192515 21 360 9.7 16.1 0.00 0.00 0.00 32 1010.4
20260504192014 20 11 9.7 16.1 0.00 0.00 0.00 29 1010.7
20260504191608 20 27 9.7 16.1 0.00 0.00 0.00 30 1010.7
20260504191022 20 347 9.7 17.7 0.00 0.00 0.00 30 1010.6
20260504190523 20 11 8.0 19.3 0.00 0.00 0.00 31 1010.7
20260504190110 20 29 11.3 19.3 0.00 0.00 0.00 29 1010.8
20260504185524 20 11 8.0 16.1 0.00 0.00 0.00 31 1010.6
20260504185016 19 28 11.3 17.7 0.00 0.00 0.00 34 1010.6
20260504184550 19 26 11.3 17.7 0.00 0.00 0.00 31 1010.7
20260504184015 20 17 11.3 17.7 0.00 0.00 0.00 32 1010.7
20260504183527 20 37 6.4 17.7 0.00 0.00 0.00 31 1010.9
20260504183109 20 15 8.0 17.7 0.00 0.00 0.00 34 1010.9
20260504182516 19 34 9.7 17.7 0.00 0.00 0.00 32 1011.1
20260504182016 19 47 11.3 17.7 0.00 0.00 0.00 31 1011.0
20260504181612 19 9 8.0 16.1 0.00 0.00 0.00 33 1011.0
20260504181017 19 9 11.3 17.7 0.00 0.00 0.00 33 1011.0
20260504180517 20 5 9.7 17.7 0.00 0.00 0.00 33 1010.9
20260504180111 19 352 6.4 17.7 0.00 0.00 0.00 37 1010.9
20260504175516 20 33 8.0 17.7 0.00 0.00 0.00 33 1010.9
20260504175018 19 32 6.4 17.7 0.00 0.00 0.00 34 1010.9
20260504174611 19 343 8.0 16.1 0.00 0.00 0.00 33 1010.9
20260504174017 19 348 8.0 16.1 0.00 0.00 0.00 36 1010.8
20260504173514 19 20 9.7 16.1 0.00 0.00 0.00 35 1010.9
20260504173109 19 10 8.0 14.5 0.00 0.00 0.00 32 1010.9
20260504172518 19 21 6.4 12.9 0.00 0.00 0.00 31 1010.8
20260504172016 19 10 6.4 17.7 0.00 0.00 0.00 32 1010.7
20260504171553 19 10 6.4 19.3 0.00 0.00 0.00 33 1010.8
20260504171020 19 18 6.4 14.5 0.00 0.00 0.00 33 1010.9
20260504170516 19 360 9.7 14.5 0.00 0.00 0.00 34 1010.9
20260504151019 17 15 3.2 8.0 0.00 0.00 0.00 34 1010.9
20260504150519 17 28 1.6 4.8 0.00 0.00 0.00 38 1010.9
20260504150108 17 21 1.6 6.4 0.00 0.00 0.00 35 1010.9
20260504141016 16 12 4.8 8.0 0.00 0.00 0.00 36 1010.6
20260504140514 16 12 4.8 8.0 0.00 0.00 0.00 37 1010.6
20260504130508 15 12 3.2 4.8 0.00 0.00 0.00 37 1010.2
20260504120112 15 12 0.0 0.0 0.00 0.00 0.00 36 1010.2
20260504110518 15 10 1.6 4.8 0.00 0.00 0.00 36 1010.6
20260504110109 15 10 3.2 4.8 0.00 0.00 0.00 37 1010.4
20260504100527 15 360 3.2 4.8 0.00 0.00 0.00 38 1010.7
20260504081559 16 352 0.0 0.0 0.00 0.00 0.00 36 1010.9
20260504081016 16 352 0.0 0.0 0.00 0.00 0.00 36 1010.9
20260504080517 16 352 0.0 1.6 0.00 0.00 0.00 36 1010.9
20260504050521 17 11 3.2 8.0 0.00 0.00 0.00 35 1011.1
20260504045516 17 5 3.2 6.4 0.00 0.00 0.00 34 1011.0
20260504045015 17 5 3.2 6.4 0.00 0.00 0.00 34 1011.1
20260504044543 17 12 3.2 9.7 0.00 0.00 0.00 34 1011.2
20260504044019 17 348 4.8 9.7 0.00 0.00 0.00 34 1011.2
20260504043518 17 9 3.2 8.0 0.00 0.00 0.00 34 1011.1
20260504043104 17 15 1.6 6.4 0.00 0.00 0.00 33 1011.2
20260504042519 17 15 3.2 6.4 0.00 0.00 0.00 34 1011.2
20260504042019 17 14 1.6 4.8 0.00 0.00 0.00 34 1011.1
20260504041602 17 14 1.6 4.8 0.00 0.00 0.00 34 1011.2
20260504041028 17 14 1.6 6.4 0.00 0.00 0.00 34 1011.2
20260504040520 17 14 3.2 6.4 0.00 0.00 0.00 34 1011.1
20260504040142 17 14 1.6 4.8 0.00 0.00 0.00 34 1011.3
20260504035518 17 14 0.0 4.8 0.00 0.00 0.00 34 1011.1
20260504035020 17 14 1.6 6.4 0.00 0.00 0.00 34 1011.2
20260504034607 17 14 3.2 6.4 0.00 0.00 0.00 34 1011.1
20260504034018 17 10 3.2 8.0 0.00 0.00 0.00 34 1011.1
20260504033518 17 20 3.2 8.0 0.00 0.00 0.00 34 1011.0
20260504033316 17 11 4.8 12.9 0.00 0.00 0.00 34 1011.0
20260504032515 17 23 6.4 12.9 0.00 0.00 0.00 35 1010.9
20260504032020 17 347 4.8 12.9 0.00 0.00 0.00 34 1010.9
20260504031600 17 15 6.4 12.9 0.00 0.00 0.00 33 1010.8
20260504031012 17 9 6.4 12.9 0.00 0.00 0.00 33 1010.9
20260504030516 17 360 6.4 16.1 0.00 0.00 0.00 33 1011.0
20260504030312 18 15 9.7 22.5 0.00 0.00 0.00 34 1010.9
20260504025514 18 5 8.0 17.7 0.00 0.00 0.00 33 1010.7
20260504025016 18 5 6.4 17.7 0.00 0.00 0.00 32 1010.7
20260504024816 18 351 4.8 17.7 0.00 0.00 0.00 33 1010.7
20260504024015 18 9 6.4 12.9 0.00 0.00 0.00 33 1010.7
20260504023751 18 9 6.4 9.7 0.00 0.00 0.00 33 1010.6
20260504023731 18 5 4.8 9.7 0.00 0.00 0.00 34 1010.8
20260504022521 18 10 4.8 8.0 0.00 0.00 0.00 34 1010.7
20260504022027 18 9 4.8 8.0 0.00 0.00 0.00 34 1010.7
20260504021555 18 336 3.2 8.0 0.00 0.00 0.00 34 1010.7
20260504021016 18 360 3.2 4.8 0.00 0.00 0.00 33 1010.7
20260504020514 18 360 3.2 6.4 0.00 0.00 0.00 33 1010.8
20260504020110 18 360 1.6 6.4 0.00 0.00 0.00 34 1010.9
20260504015517 18 352 3.2 4.8 0.00 0.00 0.00 34 1011.0
20260504015021 18 360 3.2 4.8 0.00 0.00 0.00 35 1010.9
20260504014604 18 360 3.2 4.8 0.00 0.00 0.00 35 1011.0
20260504014019 19 360 3.2 8.0 0.00 0.00 0.00 35 1011.0
20260504013519 19 360 3.2 9.7 0.00 0.00 0.00 35 1011.0
20260504013058 19 13 4.8 9.7 0.00 0.00 0.00 35 1011.0
20260504012521 18 12 3.2 9.7 0.00 0.00 0.00 36 1011.2
20260504012019 19 360 4.8 9.7 0.00 0.00 0.00 35 1011.2
20260504011608 19 10 4.8 9.7 0.00 0.00 0.00 35 1011.4
20260504011021 19 5 6.4 8.0 0.00 0.00 0.00 34 1011.4
20260504010516 19 352 3.2 8.0 0.00 0.00 0.00 35 1011.5
20260504010104 19 14 4.8 8.0 0.00 0.00 0.00 34 1011.4
20260504005521 19 20 3.2 12.9 0.00 0.00 0.00 34 1011.4
20260504005021 19 360 4.8 12.9 0.00 0.00 0.00 35 1011.5
20260504004601 19 360 4.8 8.0 0.00 0.00 0.00 34 1011.4
20260504004020 19 10 3.2 8.0 0.00 0.00 0.00 34 1011.6
20260504003521 19 342 4.8 9.7 0.00 0.00 0.00 35 1011.6
20260504003107 19 9 4.8 12.9 0.00 0.00 0.00 35 1011.5
20260504002517 19 14 6.4 12.9 0.00 0.00 0.00 34 1011.6
20260504002019 19 352 6.4 9.7 0.00 0.00 0.00 34 1011.6
20260504001814 19 348 4.8 17.7 0.00 0.00 0.00 34 1011.8
20260504001014 19 32 6.4 17.7 0.00 0.00 0.00 34 1011.9
20260504000517 19 24 6.4 14.5 0.00 0.00 0.00 35 1011.9
20260504000103 20 10 9.7 16.1 0.00 0.00 0.00 34 1011.8
20260503235517 20 27 8.0 16.1 0.00 0.00 0.00 34 1012.0
20260503235017 19 26 8.0 14.5 0.00 0.00 0.00 34 1012.0
20260503234620 20 9 4.8 16.1 0.00 0.00 0.00 35 1012.0
20260503234016 20 350 3.2 16.1 0.00 0.00 0.00 33 1011.9
20260503233524 20 13 6.4 12.9 0.00 0.00 0.00 33 1012.1
20260503233052 20 5 4.8 14.5 0.00 0.00 0.00 34 1012.2
20260503232519 20 25 6.4 17.7 0.00 0.00 0.00 32 1012.2
20260503232014 20 5 11.3 17.7 0.00 0.00 0.00 32 1012.3
20260503231951 20 9 4.8 12.9 0.00 0.00 0.00 34 1012.4
20260503231019 20 344 4.8 14.5 0.00 0.00 0.00 32 1012.4
20260503230515 20 39 8.0 14.5 0.00 0.00 0.00 32 1012.6
20260503230119 20 333 4.8 14.5 0.00 0.00 0.00 31 1012.7
20260503225515 20 222 1.6 16.1 0.00 0.00 0.00 34 1012.7
20260503225015 20 42 11.3 16.1 0.00 0.00 0.00 32 1012.8
20260503224616 20 13 6.4 17.7 0.00 0.00 0.00 32 1013.0
20260503224016 20 13 8.0 16.1 0.00 0.00 0.00 33 1013.1
20260503223517 20 13 6.4 14.5 0.00 0.00 0.00 32 1013.2
20260503223113 20 24 9.7 14.5 0.00 0.00 0.00 32 1013.1
20260503222516 20 13 6.4 14.5 0.00 0.00 0.00 33 1013.0
20260503222015 20 5 6.4 16.1 0.00 0.00 0.00 35 1013.1
20260503221613 20 12 8.0 14.5 0.00 0.00 0.00 34 1013.0
20260503221019 19 5 4.8 14.5 0.00 0.00 0.00 33 1013.1
20260503220516 19 11 8.0 14.5 0.00 0.00 0.00 34 1013.2
20260503220117 19 34 6.4 14.5 0.00 0.00 0.00 33 1013.6
20260503215516 20 26 3.2 12.9 0.00 0.00 0.00 34 1013.5